This is the latest recevied weather packets stored in our database for station/object KA9CBS. If no packets are shown the sender has not sent any weather packets the latest 10 day(s).
| Time | Temp. | Humidity | Pressure | Rain* | Wind** | Luminosity | Snow |
|---|---|---|---|---|---|---|---|
| 1787596528 | 26.67° C | 58% | 1020.2 hPa | 0 mm | - | 688 W/m² | - |
| 1787596223 | 26.11° C | 58% | 1020.2 hPa | 0 mm | - | 666 W/m² | - |
| 1787595919 | 26.11° C | 62% | 1020.3 hPa | 0 mm | - | 671 W/m² | - |
| 1787595620 | 26.67° C | 60% | 1020.1 hPa | 0 mm | - | 688 W/m² | - |
| 1787595316 | 26.67° C | 59% | 1020.1 hPa | 0 mm | - | 677 W/m² | - |
| 1787595014 | 26.67° C | 58% | 1020.3 hPa | 0 mm | - | 661 W/m² | - |
| 1787594709 | 26.67° C | 61% | 1020.4 hPa | 0 mm | - | 629 W/m² | - |
| 1787594409 | 27.22° C | 55% | 1020.3 hPa | 0 mm | - | 633 W/m² | - |
| 1787594103 | 26.11° C | 58% | 1020.3 hPa | 0 mm | - | 634 W/m² | - |
| 1787593798 | 25.56° C | 58% | 1020.6 hPa | 0 mm | - | 656 W/m² | - |
| 1787593493 | 25.56° C | 60% | 1020.6 hPa | 0 mm | - | 694 W/m² | - |
| 1787593189 | 25.56° C | 59% | 1020.7 hPa | 0 mm | - | 727 W/m² | - |
| 1787592884 | 25.56° C | 61% | 1020.4 hPa | 0 mm | - | 711 W/m² | - |
| 1787592578 | 25.56° C | 62% | 1020.7 hPa | 0 mm | - | 622 W/m² | - |
| 1787592278 | 25.56° C | 60% | 1020.6 hPa | 0 mm | - | 649 W/m² | - |
| 1787591974 | 25.56° C | 58% | 1020.7 hPa | 0 mm | - | 644 W/m² | - |
| 1787591669 | 26.67° C | 58% | 1020.8 hPa | 0 mm | - | 673 W/m² | - |
| 1787591366 | 26.11° C | 58% | 1020.8 hPa | 0 mm | - | 690 W/m² | - |
| 1787591066 | 26.67° C | 56% | 1020.5 hPa | 0 mm | - | 671 W/m² | - |
| 1787590761 | 26.67° C | 57% | 1020.9 hPa | 0 mm | - | 679 W/m² | - |
| 1787590456 | 26.11° C | 58% | 1020.8 hPa | 0 mm | - | 661 W/m² | - |
| 1787590152 | 27.22° C | 55% | 1020.9 hPa | 0 mm | - | 651 W/m² | - |
| 1787589847 | 26.67° C | 55% | 1020.9 hPa | 0 mm | - | 634 W/m² | - |
| 1787589543 | 25.56° C | 55% | 1020.9 hPa | 0 mm | - | 616 W/m² | - |
| 1787589238 | 25° C | 58% | 1021 hPa | 0 mm | - | 617 W/m² | - |
* Rain latest hour (hover to see other rain measurements)
** Current wind speed in m/s (hover to see current wind gust speed)